Regional Weather Roundup
Issued by NWS Northern Indiana

Home | Current Version | Previous Version | Text Only | Print | Product List | Glossary Off
Versions: 1 2 3 4 5 6 7 8 9 10 11 12 13 14 15 16 17 18 19 20 21 22 23 24 25 26 27 28 29 30 31 32 33 34 35 36 37 38 39 40 41 42 43 44 45 46 47 48 49 50

576
ASUS43 KIWX 240000
RWRIWX

KIWX WEATHER ROUNDUP
NATIONAL WEATHER SERVICE NORTHERN INDIANA
800 PM EDT TUE MAY 23 2017

NOTE: "FAIR" INDICATES FEW OR NO CLOUDS BELOW 12,000 FEET WITH NO
SIGNIFICANT WEATHER AND/OR OBSTRUCTIONS TO VISIBILITY.

* THESE STATIONS ARE NOT UNDER NWS QUALITY CONTROL. THEY ALSO MAY NOT
  REPORT WEATHER SUCH AS PRECIPITATION OR FOG.

INZ001>027-240100-
NORTHERN INDIANA

CITY           SKY/WX    TMP DP  RH WIND       PRES   REMARKS
GARY*          LGT RAIN  57  55  94 NW7       29.72S
MICHIGAN CITY* CLOUDY    61  55  82 NE3       29.70F
SOUTH BEND     CLOUDY    61  55  81 NE3       29.71R
6HR MIN TEMP:  59; 6HR MAX TEMP:  63; 6HR PCP:  0.02;

ELKHART*       CLOUDY    63  54  72 E9        29.70F
GOSHEN         MOSUNNY   62  54  74 NE10      29.69F
6HR MIN TEMP:  62; 6HR MAX TEMP:  71; 6HR PCP: TRACE;

MONTICELLO*    CLOUDY    66  53  63 CALM      29.66F
6HR MIN TEMP:  66; 6HR MAX TEMP:  71;

ANGOLA*        CLEAR     63  52  67 N6        29.70F
FORT WAYNE     CLOUDY    70  48  45 E7        29.67F
6HR MIN TEMP:  69; 6HR MAX TEMP:  75; 6HR PCP: TRACE;


$$
INZ028>050-240100-
CENTRAL INDIANA

CITY           SKY/WX    TMP DP  RH WIND       PRES   REMARKS
LAFAYETTE      CLOUDY    67  51  56 N3        29.65F
6HR MIN TEMP:  67; 6HR MAX TEMP:  70;

KOKOMO*        CLOUDY    70  52  52 N6        29.67F
6HR MIN TEMP:  69; 6HR MAX TEMP:  74;

MUNCIE*        PTCLDY    72  46  39 E7        29.66F
6HR MIN TEMP:  72; 6HR MAX TEMP:  76;

INDIANAPOLIS   CLOUDY    69  46  43 S6        29.65F
6HR MIN TEMP:  69; 6HR MAX TEMP:  73;


$$
MIZ043>046-050>051-056>058-064>065-071>073-077>080-240100-
SOUTHWEST LOWER MICHIGAN

CITY           SKY/WX    TMP DP  RH WIND       PRES   REMARKS
BATTLE CREEK   CLOUDY    60  57  89 N6        29.74F
6HR MIN TEMP:  59; 6HR MAX TEMP:  65; 6HR PCP:  0.02;

BENTON HARBOR  PTSUNNY   61  55  81 CALM      29.70F
6HR MIN TEMP:  60; 6HR MAX TEMP:  63; 6HR PCP:  0.02;

COLDWATER*     MOCLDY    60  57  91 N7        29.72R
6HR MIN TEMP:  60; 6HR MAX TEMP:  71;

HILLSDALE*     MOCLDY    61  54  77 NE7       29.72S
HOLLAND        CLOUDY    60  56  86 E5        29.73F
6HR MIN TEMP:  60; 6HR MAX TEMP:  61; 6HR PCP:  0.02;

GRAND RAPIDS   CLOUDY    60  57  89 NE7       29.73F
6HR MIN TEMP:  60; 6HR MAX TEMP:  63; 6HR PCP:  0.03;

KALAMAZOO      CLOUDY    61  54  77 N5        29.72F
6HR MIN TEMP:  60; 6HR MAX TEMP:  64; 6HR PCP:  0.05;

STURGIS*       CLOUDY    60  56  87 NE8       29.70F
6HR MIN TEMP:  60; 6HR MAX TEMP:  69;

THREE RIVERS*  CLOUDY    58  55  88 E9        29.71F
6HR MIN TEMP:  58; 6HR MAX TEMP:  67;


$$
OHZ001>008-015>018-024>025-240100-
NORTHWEST OHIO

CITY           SKY/WX    TMP DP  RH WIND       PRES   REMARKS
DEFIANCE       MOCLDY    68  47  46 NE9       29.69S
6HR MIN TEMP:  68; 6HR MAX TEMP:  73;

FINDLAY        MOCLDY    71  48  43 NE15      29.68S
6HR MIN TEMP:  71; 6HR MAX TEMP:  75;

TOLEDO EXPRESS PTCLDY    66  48  52 E8        29.71R
6HR MIN TEMP:  66; 6HR MAX TEMP:  74;

TOLEDO METCALF PTCLDY    66  50  56 E9        29.72R
6HR MIN TEMP:  66; 6HR MAX TEMP:  76;

LIMA           MOCLDY    68  51  54 NE5       29.68F
6HR MIN TEMP:  68; 6HR MAX TEMP:  72;


$$
AND FOR LAKE MICHIGAN COASTAL AND OPEN LAKE BUOY OBSERVATIONS

STATION/POSITION TEMP    WIND        PRES    VSBY  WAVE
                 AIR SEA DIR/SP/G                  HT/PER
                 (F)     (DEG/KT/KT) (MB)    (MI)  (FT/S)
CALUMET HARBOR    56     230/  4/  5 1006.2R
MICHIGAN CITY     57      20/  9/ 10   N/A
BURNS HARBOR      54     300/ 10/ 11 1006.1F
SOUTH LAKE BUOY   49 45  150/  2/  2 1006.9          0
4 MI NW BRIDGMAN  60 56  100/  4/  6 1005.8F         0
MICHIGAN CITY     55 54   40/  8/ 10   N/A           1

$$
&&




USA.gov is the U.S. government's official web portal to all federal, state and local government web resources and services.